This is the latest recevied weather packets stored in our database for station/object SR6WVX. If no packets are shown the sender has not sent any weather packets the latest 10 day(s).
| Time | Temp. | Humidity | Pressure | Rain* | Wind** | Luminosity | Snow |
|---|---|---|---|---|---|---|---|
| 1777618918 | 20° C | 38% | 1023.6 hPa | 0 mm | - | - | - |
| 1777618618 | 20.56° C | 40% | 1023.7 hPa | 0 mm | - | - | - |
| 1777618318 | 21.11° C | 40% | 1023.7 hPa | 0 mm | - | - | - |
| 1777618018 | 20.56° C | 41% | 1023.6 hPa | 0 mm | - | - | - |
| 1777617717 | 20° C | 41% | 1023.8 hPa | 0 mm | - | - | - |
| 1777617417 | 19.44° C | 42% | 1023.5 hPa | 0 mm | - | - | - |
| 1777617117 | 19.44° C | 44% | 1023.7 hPa | 0 mm | - | - | - |
| 1777616816 | 18.89° C | 45% | 1023.6 hPa | 0 mm | - | - | - |
| 1777616516 | 17.78° C | 49% | 1023.8 hPa | 0 mm | - | - | - |
| 1777616216 | 17.78° C | 49% | 1023.8 hPa | 0 mm | - | - | - |
| 1777615916 | 17.22° C | 48% | 1023.6 hPa | 0 mm | - | - | - |
| 1777615615 | 16.11° C | 50% | 1023.7 hPa | 0 mm | - | - | - |
| 1777615315 | 15.56° C | 52% | 1023.6 hPa | 0 mm | - | - | - |
| 1777615015 | 15.56° C | 52% | 1023.7 hPa | 0 mm | - | - | - |
| 1777614715 | 15° C | 53% | 1023.7 hPa | 0 mm | - | - | - |
| 1777614414 | 15° C | 54% | 1023.7 hPa | 0 mm | - | - | - |
| 1777614114 | 13.89° C | 56% | 1023.8 hPa | 0 mm | - | - | - |
| 1777613814 | 13.89° C | 57% | 1023.7 hPa | 0 mm | - | - | - |
| 1777613514 | 13.89° C | 59% | 1023.6 hPa | 0 mm | - | - | - |
| 1777613213 | 12.78° C | 61% | 1023.8 hPa | 0 mm | - | - | - |
| 1777612913 | 12.22° C | 62% | 1023.5 hPa | 0 mm | - | - | - |
| 1777612613 | 11.67° C | 62% | 1023.7 hPa | 0 mm | - | - | - |
| 1777612313 | 11.67° C | 65% | 1023.7 hPa | 0 mm | - | - | - |
| 1777612012 | 11.11° C | 66% | 1023.7 hPa | 0 mm | - | - | - |
| 1777611712 | 11.11° C | 66% | 1023.8 hPa | 0 mm | - | - | - |
* Rain latest hour (hover to see other rain measurements)
** Current wind speed in m/s (hover to see current wind gust speed)